Time,TemperatureF,DewpointF,PressureIn,WindDirection,WindDirectionDegrees,WindSpeedMPH,WindSpeedGustMPH,Humidity,HourlyPrecipIn,Conditions,Clouds,dailyrainin,SoftwareType,DateUTC
2013-07-31 00:02:00,81.0,66.0,29.93,SSE,148,4.0,4.0,60,0.00,,,0.00,,2013-07-31 05:02:00,
2013-07-31 00:11:00,80.0,66.0,29.93,SSE,166,4.0,5.0,62,0.00,,,0.00,,2013-07-31 05:11:00,
2013-07-31 00:22:00,80.0,66.0,29.93,South,181,4.0,4.0,62,0.00,,,0.00,,2013-07-31 05:22:00,
2013-07-31 00:32:00,79.0,65.0,29.93,South,180,4.0,4.0,62,0.00,,,0.00,,2013-07-31 05:32:00,
2013-07-31 00:42:00,79.0,65.0,29.93,South,188,4.0,4.0,62,0.00,,,0.00,,2013-07-31 05:42:00,
2013-07-31 00:52:00,79.0,65.0,29.93,South,179,4.0,5.0,63,0.00,,,0.00,,2013-07-31 05:52:00,
2013-07-31 01:02:00,79.0,65.0,29.93,SSE,166,4.0,4.0,63,0.00,,,0.00,,2013-07-31 06:02:00,
2013-07-31 01:32:00,78.0,65.0,29.93,South,172,2.0,2.0,64,0.00,,,0.00,,2013-07-31 06:32:00,
2013-07-31 01:42:00,77.0,64.0,29.94,SSE,167,3.0,3.0,64,0.00,,,0.00,,2013-07-31 06:42:00,
2013-07-31 01:52:00,77.0,64.0,29.94,South,190,4.0,4.0,65,0.00,,,0.00,,2013-07-31 06:52:00,
2013-07-31 02:12:00,77.0,64.0,29.94,SE,145,2.0,2.0,64,0.00,,,0.00,,2013-07-31 07:12:00,
2013-07-31 02:22:00,77.0,63.0,29.95,SE,145,7.0,7.0,62,0.00,,,0.00,,2013-07-31 07:22:00,
2013-07-31 02:32:00,77.0,63.0,29.95,SSE,148,6.0,6.0,62,0.00,,,0.00,,2013-07-31 07:32:00,
2013-07-31 02:43:00,77.0,63.0,29.95,South,169,4.0,4.0,63,0.00,,,0.00,,2013-07-31 07:43:00,
2013-07-31 02:52:00,77.0,64.0,29.95,SW,217,4.0,4.0,64,0.00,,,0.00,,2013-07-31 07:52:00,
2013-07-31 03:02:00,77.0,64.0,29.95,South,179,4.0,4.0,64,0.00,,,0.00,,2013-07-31 08:02:00,
2013-07-31 03:12:00,77.0,65.0,29.95,SW,233,5.0,5.0,66,0.00,,,0.00,,2013-07-31 08:12:00,
2013-07-31 03:22:00,78.0,66.0,29.95,SSE,162,4.0,5.0,66,0.00,,,0.00,,2013-07-31 08:22:00,
2013-07-31 03:32:00,78.0,67.0,29.95,SSE,165,5.0,5.0,68,0.00,,,0.00,,2013-07-31 08:32:00,
2013-07-31 03:42:00,78.0,67.0,29.95,South,177,5.0,5.0,69,0.00,,,0.00,,2013-07-31 08:42:00,
2013-07-31 03:53:00,78.0,67.0,29.95,South,190,4.0,6.0,70,0.00,,,0.00,,2013-07-31 08:53:00,
2013-07-31 04:02:00,78.0,68.0,29.95,South,173,2.0,7.0,72,0.00,,,0.00,,2013-07-31 09:02:00,
2013-07-31 04:12:00,77.0,68.0,29.94,SSW,204,5.0,5.0,74,0.00,,,0.00,,2013-07-31 09:12:00,
2013-07-31 04:22:00,78.0,70.0,29.94,SSE,152,5.0,5.0,76,0.00,,,0.00,,2013-07-31 09:22:00,
2013-07-31 04:32:00,78.0,70.0,29.94,SSE,163,5.0,6.0,77,0.00,,,0.00,,2013-07-31 09:32:00,
2013-07-31 04:43:00,77.0,70.0,29.95,SSE,163,5.0,7.0,78,0.00,,,0.00,,2013-07-31 09:43:00,
2013-07-31 04:52:00,78.0,71.0,29.95,SSW,205,6.0,6.0,79,0.00,,,0.00,,2013-07-31 09:52:00,
2013-07-31 05:02:00,78.0,71.0,29.94,SSW,194,5.0,5.0,79,0.00,,,0.00,,2013-07-31 10:02:00,
2013-07-31 05:12:00,78.0,71.0,29.94,SSE,156,4.0,4.0,80,0.00,,,0.00,,2013-07-31 10:12:00,
2013-07-31 05:22:00,78.0,71.0,29.94,SSW,207,5.0,5.0,80,0.00,,,0.00,,2013-07-31 10:22:00,
2013-07-31 05:32:00,78.0,71.0,29.94,South,183,6.0,6.0,80,0.00,,,0.00,,2013-07-31 10:32:00,
2013-07-31 05:44:00,77.0,71.0,29.95,South,181,7.0,7.0,81,0.00,,,0.00,,2013-07-31 10:44:00,
2013-07-31 05:52:00,77.0,71.0,29.95,South,169,6.0,6.0,81,0.00,,,0.00,,2013-07-31 10:52:00,
2013-07-31 06:03:00,77.0,71.0,29.95,SSE,160,4.0,7.0,82,0.00,,,0.00,,2013-07-31 11:03:00,
2013-07-31 06:12:00,77.0,71.0,29.96,SW,226,5.0,5.0,82,0.00,,,0.00,,2013-07-31 11:12:00,
2013-07-31 06:22:00,77.0,71.0,29.97,WSW,256,3.0,4.0,82,0.00,,,0.00,,2013-07-31 11:22:00,
2013-07-31 06:33:00,76.0,70.0,-100.00,SW,221,3.0,3.0,83,0.00,,,0.00,,2013-07-31 11:33:00,
2013-07-31 06:43:00,76.0,70.0,29.98,SW,233,2.0,3.0,83,0.00,,,0.00,,2013-07-31 11:43:00,
2013-07-31 06:52:00,76.0,71.0,29.98,SSW,197,2.0,2.0,84,0.00,,,0.00,,2013-07-31 11:52:00,
2013-07-31 07:02:00,75.0,70.0,29.99,SW,233,2.0,2.0,85,0.00,,,0.00,,2013-07-31 12:02:00,
2013-07-31 07:12:00,75.0,70.0,29.99,SW,214,2.0,3.0,85,0.00,,,0.00,,2013-07-31 12:12:00,
2013-07-31 07:22:00,75.0,71.0,29.99,SW,235,1.0,1.0,86,0.00,,,0.00,,2013-07-31 12:22:00,
2013-07-31 07:32:00,74.0,70.0,30.00,South,186,0.0,0.0,86,0.00,,,0.00,,2013-07-31 12:32:00,
2013-07-31 07:43:00,75.0,71.0,30.01,South,186,0.0,0.0,86,0.00,,,0.00,,2013-07-31 12:43:00,
2013-07-31 07:52:00,75.0,71.0,30.01,South,186,0.0,0.0,86,0.00,,,0.00,,2013-07-31 12:52:00,
2013-07-31 08:02:00,76.0,72.0,30.01,South,186,0.0,0.0,86,0.00,,,0.00,,2013-07-31 13:02:00,
2013-07-31 08:12:00,79.0,73.0,30.01,South,186,0.0,0.0,83,0.00,,,0.00,,2013-07-31 13:12:00,
2013-07-31 08:22:00,80.0,74.0,30.01,South,186,0.0,0.0,81,0.00,,,0.00,,2013-07-31 13:22:00,
2013-07-31 08:43:00,82.0,73.0,30.02,South,186,0.0,0.0,75,0.00,,,0.00,,2013-07-31 13:43:00,
2013-07-31 08:53:00,84.0,73.0,30.03,South,186,0.0,0.0,70,0.00,,,0.00,,2013-07-31 13:53:00,